GFSGL_925_thetae_057.txt.gz
Theta_e
301 303 304 303 301 301 302 301 300 297 293 289 288 288 287 287 287 287 287 286 286 285 285 284 284 284 283 283 283 282 281 280 280 280 280 280 280 280 280 279 279 279 279
301 301 304 303 300 299 298 298 298 295 291 289 288 287 287 286 286 286 286 286 286 285 285 284 284 284 284 283 283 282 281 280 279 278 279 279 279 279 279 279 279 279 277
300 300 300 300 298 297 297 297 296 293 289 287 287 286 286 286 286 286 286 286 285 285 285 285 285 284 284 283 283 282 281 280 279 277 277 278 278 279 279 279 278 278 276
299 298 297 297 297 297 297 297 296 293 289 287 286 286 286 285 285 285 285 285 285 285 285 285 285 285 284 283 283 282 281 280 279 277 276 277 277 278 278 278 278 277 276
297 296 295 295 295 293 294 294 292 289 288 287 286 285 285 285 285 285 284 284 285 284 285 284 284 284 283 283 283 282 281 279 278 277 277 277 277 277 277 277 276 276 276
294 294 293 293 293 292 291 291 290 287 286 285 285 285 284 284 284 284 285 284 283 286 284 286 283 283 283 283 283 282 281 280 279 278 278 278 278 277 277 277 276 276 276
293 293 293 292 291 290 290 288 286 285 284 284 284 284 284 284 284 284 284 284 285 285 285 286 283 283 283 282 281 281 281 281 281 281 280 279 278 278 277 276 276 276 275
291 291 291 291 289 289 288 287 285 284 283 283 283 284 284 284 284 284 284 284 290 283 287 287 283 283 282 282 281 280 280 279 279 279 279 278 277 277 278 278 276 275 274
289 289 289 289 287 286 285 284 283 283 282 282 283 283 283 283 283 283 283 291 288 283 289 285 284 282 282 281 280 280 280 280 279 279 278 278 279 280 280 277 276 274 274
288 288 288 288 287 286 285 284 283 283 282 282 282 283 283 283 282 283 289 291 285 285 288 286 285 281 281 281 280 280 280 280 279 279 279 278 278 278 278 277 276 274 271
288 288 288 287 287 287 285 283 283 282 282 282 283 283 284 283 283 284 289 290 287 284 285 286 285 282 282 281 281 281 280 280 279 279 279 279 278 277 277 276 275 273 270
288 287 287 286 286 285 285 283 283 283 282 282 283 282 282 282 285 289 290 289 286 283 285 286 283 282 282 281 281 280 280 281 280 280 279 277 277 276 275 275 273 272 269
287 286 286 285 285 285 284 283 283 284 286 283 283 283 282 284 290 290 286 286 286 285 285 283 282 282 281 280 281 281 280 280 279 278 276 275 274 274 272 272 271 270 268
286 285 285 285 285 285 285 285 285 286 285 285 283 283 284 288 289 288 285 285 285 284 284 283 282 281 280 279 279 278 278 277 276 275 273 272 271 271 269 269 268 267 265
286 285 285 285 285 285 285 286 287 287 286 285 284 285 286 286 288 289 287 285 284 281 281 281 280 279 278 277 276 275 274 274 272 271 270 270 269 268 268 266 265 264 263
286 285 286 286 286 285 285 284 285 285 286 286 286 287 286 286 287 284 283 282 281 279 278 278 278 276 275 275 274 273 272 270 268 267 267 267 267 266 266 265 263 263 262
287 286 285 285 285 284 284 284 282 282 282 282 282 282 282 282 281 282 280 279 279 278 276 276 276 275 274 273 272 270 268 267 266 266 265 265 264 264 263 263 262 262 262
287 287 286 286 285 284 284 283 282 280 280 280 279 280 280 279 279 279 280 278 277 278 277 276 274 274 273 271 268 267 266 266 265 265 264 264 264 263 263 262 262 261 260
285 284 284 283 283 283 282 281 281 280 279 279 279 279 279 279 279 278 276 277 276 276 275 274 273 271 269 267 266 266 265 265 264 264 264 263 263 262 262 262 261 261 260
283 283 283 283 282 281 281 280 279 279 278 277 277 277 277 276 276 275 275 274 274 274 273 271 269 268 267 266 265 264 264 264 263 263 262 262 262 261 261 261 261 259 259
281 280 280 280 280 279 280 279 278 278 277 276 275 275 274 274 273 272 272 271 270 269 268 267 266 266 265 264 263 263 263 263 262 262 262 261 261 261 261 260 260 259 259
279 278 278 278 277 276 276 276 275 275 275 274 272 272 271 271 270 269 268 268 267 266 266 266 265 264 264 263 263 263 263 262 262 262 261 261 261 261 260 260 259 259 259
277 277 276 275 275 275 274 273 273 272 272 271 270 269 269 269 267 267 266 265 265 265 264 264 264 263 263 263 263 262 262 262 262 261 261 261 261 260 260 259 259 259 258
274 274 274 273 272 272 272 271 270 270 269 269 268 267 267 266 265 265 264 264 264 263 263 263 263 263 263 263 262 262 261 261 260 260 260 260 260 259 259 258 258 258 258
270 270 270 270 269 269 269 268 268 267 267 266 266 265 265 264 264 264 264 263 263 263 263 262 262 262 262 262 261 261 261 261 261 260 260 260 259 259 258 258 258 258 257
266 266 266 266 266 265 265 265 265 264 264 264 264 264 263 263 263 263 263 262 262 262 262 262 262 262 262 262 262 261 261 261 261 261 260 260 259 259 259 259 259 259 258

GFSGL_925_thetae_060.txt.gz
Theta_e
303 304 303 302 304 305 304 303 302 303 305 304 301 296 291 289 288 288 288 287 287 287 286 286 285 285 284 284 284 284 284 283 285 284 282 281 282 283 282 281 281 280 280
302 303 302 301 300 302 302 302 300 302 302 301 298 290 288 288 288 287 287 287 287 286 285 285 284 284 284 285 284 283 283 283 283 284 282 281 281 282 281 280 280 279 279
302 301 300 300 299 299 299 300 299 298 298 295 294 288 288 287 287 287 287 287 286 286 285 285 285 285 289 283 284 283 282 282 281 281 281 280 280 281 280 280 280 280 280
300 300 300 299 298 300 299 298 297 296 295 293 290 288 287 287 286 286 286 286 285 285 285 285 286 290 287 285 284 283 282 281 281 280 280 280 280 280 279 280 281 281 280
299 298 299 298 297 298 297 296 295 294 294 293 288 286 286 286 286 286 286 286 285 284 284 285 287 289 284 284 284 284 282 281 281 280 280 280 281 281 281 280 279 280 280
298 297 298 297 294 295 295 294 293 292 290 288 286 285 285 285 285 286 286 285 284 284 284 284 287 289 284 283 283 282 282 282 281 281 281 281 281 281 280 280 279 279 280
296 296 296 294 293 293 292 292 290 289 288 287 285 284 284 284 285 285 285 285 284 284 285 287 287 290 284 282 282 282 281 282 282 281 280 281 281 281 280 279 279 279 279
294 294 294 292 291 291 290 289 288 287 286 285 284 284 283 283 284 284 284 284 284 284 289 287 286 290 285 282 281 280 281 281 281 282 282 282 280 279 278 278 279 278 278
293 293 292 291 290 289 288 287 286 285 284 284 283 283 282 282 283 283 283 283 283 285 290 287 285 288 288 283 281 280 280 280 280 280 280 279 279 280 280 280 279 278 278
291 292 291 290 290 288 288 287 286 285 284 282 282 282 282 283 283 283 284 283 282 289 289 288 284 287 287 285 281 280 280 280 280 280 280 280 279 279 279 279 278 278 277
290 290 289 289 289 288 287 286 285 283 282 282 282 282 283 283 283 283 284 283 285 290 290 290 286 286 287 286 282 280 281 281 280 280 280 279 278 278 277 277 277 275 275
289 288 288 287 287 286 285 284 284 282 282 281 282 281 282 282 283 284 285 284 288 289 290 289 287 286 286 284 283 282 282 282 282 281 281 279 277 277 276 274 273 272 272
287 286 286 285 285 285 284 283 283 282 282 282 282 282 281 281 282 283 285 286 287 288 288 287 287 286 284 282 282 282 282 281 281 280 279 278 277 274 272 272 271 270 269
285 285 284 285 284 284 284 284 284 283 283 283 283 283 283 282 282 282 283 286 287 287 286 285 285 284 283 281 281 281 280 280 278 277 276 275 273 272 271 270 269 269 268
285 285 285 285 285 285 284 284 284 284 285 285 285 285 285 284 285 285 284 286 287 286 285 284 282 281 280 280 279 278 278 276 275 274 273 272 271 270 269 269 268 267 266
285 285 285 285 285 285 284 284 285 285 287 287 287 288 287 287 286 285 285 288 286 283 283 281 279 279 279 278 276 275 273 273 272 271 270 269 269 268 268 267 267 266 265
286 285 285 285 284 284 284 284 283 284 285 285 285 285 285 286 286 286 284 282 282 281 279 278 279 277 277 275 274 272 272 270 269 267 267 267 267 266 265 266 265 265 265
286 285 285 284 284 283 283 284 284 284 283 282 281 282 282 282 282 282 282 281 280 280 278 276 276 274 273 272 272 271 269 267 266 266 265 265 264 264 265 264 264 263 263
287 286 286 285 284 284 284 283 282 282 282 279 279 279 280 280 281 281 280 279 276 275 276 276 275 274 273 272 270 268 267 266 265 264 264 263 263 263 263 262 262 261 261
283 283 283 282 282 281 281 280 279 279 278 278 278 278 279 278 278 279 278 277 276 275 275 274 274 273 271 269 267 266 265 265 264 264 263 263 262 261 262 261 261 261 262
281 281 281 281 280 279 279 279 278 278 276 276 276 277 278 277 276 276 275 274 274 273 273 272 270 268 267 266 265 265 264 263 263 263 262 262 262 261 260 260 261 260 260
279 278 278 278 277 277 277 277 277 276 275 274 274 274 273 275 274 273 272 272 270 270 269 268 267 266 266 265 265 264 264 263 263 263 262 262 262 260 260 259 259 259 259
276 276 275 275 275 275 275 274 274 273 273 272 272 272 272 272 271 270 269 269 268 267 267 266 266 266 265 265 264 264 263 263 263 262 262 261 261 260 259 259 259 258 258
273 273 273 272 272 272 271 271 271 271 271 270 270 270 269 269 269 268 267 266 266 265 265 265 265 265 264 264 263 263 263 262 262 261 261 260 260 259 259 258 258 258 258
270 270 269 269 268 268 268 268 268 268 267 267 267 267 266 266 265 265 265 265 264 264 264 264 264 264 264 263 262 262 262 262 261 261 260 260 259 259 259 258 258 257 257
266 266 266 265 265 265 265 265 265 265 265 264 264 264 264 264 264 264 264 264 263 263 263 263 263 262 262 262 263 262 262 262 261 261 260 260 259 259 259 259 259 258 258

GFSGL_925_thetae_063.txt.gz
Theta_e
308 308 307 309 309 309 308 307 305 305 307 308 309 309 307 303 299 296 295 294 293 292 289 288 287 286 286 286 286 287 286 286 287 284 284 283 283 283 282 282 282 283 283
307 306 306 307 306 306 305 303 302 304 305 304 304 303 302 298 295 294 293 292 291 289 287 286 286 285 285 286 287 285 285 285 285 285 284 283 283 282 283 282 282 282 282
306 305 305 305 305 304 303 301 302 303 302 299 299 299 299 296 291 291 292 290 288 288 287 286 286 285 285 289 286 284 284 284 285 284 284 283 283 282 282 282 282 282 282
305 305 304 305 304 303 302 300 301 303 302 299 297 298 298 295 290 288 288 287 287 287 286 286 286 286 291 290 285 284 284 284 284 283 282 282 282 282 281 281 281 282 281
305 304 303 303 302 302 301 299 298 300 301 300 295 293 292 290 288 287 287 286 286 285 285 285 286 289 292 287 286 285 284 283 283 282 282 282 282 282 282 282 281 281 281
304 303 302 302 301 300 299 296 296 298 297 294 291 291 289 288 286 287 286 286 285 285 284 284 286 290 289 285 287 285 284 283 283 282 282 282 282 282 282 281 281 280 280
303 302 301 300 300 298 296 295 294 294 293 292 290 289 288 286 285 286 286 285 285 285 284 284 286 289 290 289 286 282 282 282 283 282 282 282 282 282 282 281 281 280 279
301 300 299 298 298 296 294 293 293 292 292 290 289 288 286 285 284 285 284 285 284 284 284 285 286 289 290 289 285 282 282 282 283 282 282 282 282 282 281 279 279 279 279
298 297 296 296 295 293 292 291 290 290 288 288 287 286 285 284 284 285 283 284 284 283 284 284 286 289 290 290 287 281 281 282 281 281 280 280 281 281 281 281 281 281 280
295 295 295 294 293 292 291 290 289 288 287 286 285 285 284 283 285 285 283 283 283 283 283 288 288 290 291 289 288 285 284 284 282 281 281 281 280 280 280 280 279 279 279
292 292 293 292 292 291 290 289 288 286 285 284 283 283 283 283 285 285 284 283 283 283 283 288 290 290 290 288 286 286 285 284 282 281 281 281 281 279 278 277 277 276 275
290 290 290 290 289 289 288 287 286 284 283 282 282 282 282 282 284 285 284 284 284 284 284 287 289 290 290 287 285 285 284 282 281 282 282 282 280 278 277 276 274 273 272
288 287 287 287 287 287 286 285 284 283 283 282 282 282 282 283 284 285 285 284 283 284 286 287 289 289 288 286 285 285 284 283 283 282 282 281 279 277 275 274 272 271 270
286 286 286 286 285 285 285 285 284 284 284 283 283 283 282 282 283 284 286 286 285 286 287 288 287 288 287 285 284 283 283 283 282 281 280 278 276 275 273 272 270 270 268
285 285 286 285 285 285 285 285 285 285 284 284 284 284 283 282 282 283 285 285 286 286 286 286 286 285 283 282 282 281 281 280 279 278 277 275 274 272 271 270 269 268 267
285 285 285 286 286 285 285 285 285 285 285 286 286 286 285 286 285 284 284 284 285 286 286 285 284 283 282 281 280 278 278 277 276 275 274 273 271 270 269 268 267 267 266
287 286 286 286 285 284 285 285 285 286 286 286 286 286 286 286 286 286 286 285 285 285 284 283 282 281 281 280 279 277 275 274 273 272 271 270 269 268 267 266 266 266 266
286 286 286 285 285 285 285 285 285 284 284 283 283 284 284 285 285 285 285 285 284 284 282 280 280 280 279 277 276 274 273 272 271 269 268 268 267 266 266 266 265 265 264
284 284 285 285 284 284 284 284 285 285 284 281 280 280 281 282 282 283 283 282 281 280 279 277 276 275 275 274 273 272 271 270 269 267 267 266 265 265 264 264 264 264 263
284 283 283 283 282 282 282 282 282 283 281 280 280 279 279 280 280 280 280 279 277 275 274 274 274 274 273 272 272 271 270 267 267 266 265 265 264 264 263 263 262 262 262
280 280 280 280 280 279 280 280 279 279 279 279 278 277 277 279 276 277 277 276 275 275 274 274 273 273 273 272 270 268 267 266 266 265 264 264 263 263 262 262 262 262 261
277 277 277 277 277 277 277 277 277 277 276 276 275 275 275 277 275 275 275 274 274 274 273 272 272 271 270 269 268 267 266 265 264 264 263 263 262 262 261 261 261 260 260
275 275 274 274 273 273 274 273 274 274 273 273 272 273 273 273 273 272 272 272 271 270 270 269 268 267 267 267 266 266 265 265 264 263 263 262 262 262 261 260 260 260 260
272 271 271 271 271 271 270 270 270 270 270 270 270 269 269 269 269 269 269 269 268 267 267 266 266 266 266 265 265 265 264 264 263 263 262 262 261 261 260 260 259 259 259
269 269 268 268 268 268 268 267 267 267 267 267 267 267 267 267 267 266 266 266 266 265 265 265 265 265 265 264 264 264 264 263 263 262 262 261 260 260 259 259 259 258 258
267 267 266 266 266 266 266 265 265 265 265 265 265 265 265 265 264 264 264 264 264 264 264 264 264 264 264 263 263 263 262 262 262 261 261 260 260 260 259 259 259 258 258

GFSGL_925_thetae_069.txt.gz
Theta_e
309 310 311 311 311 312 312 313 313 312 313 312 312 311 308 307 307 308 307 308 307 305 303 302 303 302 298 295 293 291 291 289 286 284 285 286 285 285 284 283 283 283 284
309 309 309 310 310 310 311 311 311 311 312 312 311 310 308 307 306 306 306 306 306 303 303 301 301 299 297 293 295 291 289 289 287 284 285 285 285 284 284 283 283 284 284
309 309 309 309 309 309 309 309 309 310 311 311 310 309 308 307 306 304 304 304 304 304 303 301 300 297 292 295 289 288 289 288 290 287 284 284 284 283 283 282 283 283 283
309 308 308 309 309 308 308 308 308 309 309 309 309 308 307 306 306 304 302 301 301 301 301 300 297 295 294 291 288 288 288 288 287 287 284 283 283 283 283 283 283 283 283
308 308 308 308 308 307 307 306 306 307 307 307 306 305 304 303 302 301 300 299 298 298 297 295 294 293 293 293 287 287 287 286 286 285 284 283 283 282 282 283 282 282 282
307 307 308 307 307 306 306 306 305 305 305 304 303 302 301 300 300 299 298 296 295 295 293 291 290 290 291 288 287 287 288 290 285 284 284 283 283 284 284 283 282 282 281
305 305 305 305 305 305 304 304 304 304 303 302 301 300 298 298 298 297 294 294 292 291 289 289 288 288 289 286 286 289 288 287 288 288 287 284 285 284 285 282 282 282 281
302 302 302 302 303 303 302 303 303 302 301 300 299 297 295 295 295 293 291 290 289 288 288 288 287 286 286 285 289 285 285 286 288 287 285 285 284 286 282 282 282 281 280
298 298 299 299 299 300 300 300 300 300 298 297 296 295 293 293 292 290 288 287 287 286 286 286 288 288 284 290 286 285 287 288 289 286 285 283 283 286 283 282 281 281 280
296 296 296 295 296 296 297 297 297 297 296 295 293 292 291 290 289 287 288 286 284 284 283 285 286 285 287 288 287 290 288 289 288 285 283 283 283 284 283 283 282 281 280
292 292 293 293 293 294 294 294 294 293 292 291 290 289 289 288 287 287 288 285 284 283 283 283 283 284 289 287 289 291 290 290 289 286 283 283 283 283 281 281 281 280 279
290 290 291 291 292 292 292 291 291 290 288 287 286 286 285 286 286 287 288 284 283 283 283 283 284 285 288 287 290 289 290 288 288 286 284 282 282 281 280 280 280 279 278
288 288 289 289 289 290 290 289 288 287 286 284 284 283 283 284 284 286 288 284 284 284 283 284 284 286 287 288 288 290 288 286 287 284 283 282 282 281 281 279 278 277 275
287 287 287 287 287 287 287 287 287 285 284 283 283 282 283 284 284 285 287 285 285 284 284 283 284 286 287 287 288 287 287 286 285 284 283 282 282 281 280 278 276 275 273
286 286 286 286 286 286 286 285 285 285 285 284 283 283 283 283 284 285 285 285 285 284 284 284 285 285 286 286 287 287 287 286 285 284 283 282 281 280 278 276 275 273 271
285 285 285 285 285 285 285 285 285 284 284 285 284 284 284 284 283 284 285 285 285 285 285 285 285 286 286 285 286 285 286 285 284 283 283 282 280 278 277 274 273 272 270
286 286 286 285 285 285 285 285 285 286 286 286 286 285 285 285 284 285 286 286 285 286 285 285 285 285 285 285 285 285 284 283 283 282 281 280 279 277 276 273 272 270 269
286 286 286 285 285 285 285 285 285 285 284 284 285 286 286 286 285 285 286 286 286 287 286 285 285 285 285 285 284 283 282 281 280 280 279 278 277 276 273 271 270 269 268
285 285 285 285 285 285 285 285 284 283 282 282 283 284 284 285 286 286 285 285 285 286 286 285 285 285 284 283 282 282 281 280 279 278 276 275 274 273 271 270 269 268 267
283 283 284 284 284 284 285 284 283 281 280 280 280 280 282 283 283 283 284 284 284 283 282 282 281 281 280 279 279 278 278 277 276 275 274 273 272 271 269 268 267 266 266
280 280 281 281 281 281 281 281 280 280 278 277 278 279 279 280 279 279 279 280 279 279 279 278 278 277 277 277 276 275 275 274 273 273 272 271 270 268 267 266 266 265 265
278 277 278 277 277 277 277 277 277 276 275 275 275 274 276 277 276 276 276 276 276 276 276 276 275 275 274 274 273 273 272 272 271 271 270 269 267 266 266 265 264 264 263
276 275 275 274 274 274 274 274 273 273 273 272 273 273 273 273 273 273 273 272 272 272 272 272 272 272 271 271 271 270 270 269 268 267 266 266 265 265 264 264 264 263 262
274 273 272 271 271 271 271 270 270 270 270 270 270 270 270 270 270 270 270 269 269 269 269 268 268 268 267 267 266 266 266 266 265 265 265 264 264 264 263 263 263 262 262
269 269 269 268 268 267 267 267 267 267 267 267 266 266 266 266 266 266 266 266 266 266 266 265 265 265 265 265 265 264 264 264 264 264 263 263 263 263 262 262 262 261 261
267 267 267 267 266 266 266 266 266 266 266 266 266 266 266 265 265 265 265 265 265 264 264 264 264 264 264 264 264 264 264 263 263 263 262 262 262 262 261 261 261 260 260

GFSGL_925_thetae_072.txt.gz
Theta_e
310 309 310 310 311 311 312 312 313 313 313 313 312 312 312 311 308 308 308 308 308 307 305 304 303 303 301 299 298 297 294 291 289 285 285 286 286 286 285 284 284 283 283
311 310 310 310 310 310 310 311 311 311 312 312 311 311 311 311 309 306 306 306 306 305 304 303 303 302 300 298 297 295 291 290 291 286 286 285 285 285 285 284 283 283 283
309 309 310 310 309 309 309 309 309 310 310 310 310 309 310 310 309 307 305 305 305 304 304 304 304 301 299 295 292 291 291 290 291 289 287 285 284 284 284 284 283 283 283
307 307 308 309 309 309 309 308 308 308 308 308 308 309 309 309 309 308 304 303 303 303 303 303 302 301 299 295 292 291 289 289 290 291 285 283 284 283 284 283 282 282 283
306 305 306 307 307 307 307 307 306 306 306 306 307 307 308 308 307 306 304 302 300 300 301 300 300 300 298 296 292 290 290 289 289 286 284 283 283 282 283 282 283 283 283
303 304 304 304 304 305 305 305 305 304 305 305 305 306 306 306 305 304 303 301 300 298 297 297 297 296 295 294 291 293 292 289 286 285 283 283 283 283 283 283 283 282 281
299 300 300 301 302 303 302 302 303 303 303 303 303 303 302 302 302 301 300 297 295 295 295 293 292 292 291 289 289 291 291 289 289 286 288 284 285 286 284 283 285 282 283
299 298 298 297 297 298 299 300 301 301 301 301 302 302 301 301 300 299 297 293 292 292 292 292 291 289 288 288 289 287 287 286 286 287 288 289 289 286 286 286 285 283 282
296 297 296 295 294 295 295 296 297 298 298 299 299 299 298 298 297 296 292 290 290 289 289 289 288 287 287 288 287 285 285 285 285 287 289 288 286 285 285 286 282 282 280
294 293 292 293 294 293 294 294 294 295 295 296 295 295 294 294 293 292 289 289 288 287 287 286 286 287 287 287 286 285 284 284 286 288 286 285 284 283 284 285 284 281 280
291 291 292 291 291 293 293 293 293 293 292 291 291 291 291 290 290 289 288 288 287 285 284 284 284 286 287 287 285 286 287 287 287 286 286 284 283 283 284 284 283 282 281
289 289 289 289 290 290 291 291 291 291 290 289 288 287 287 287 287 287 288 288 286 284 283 284 284 285 286 287 286 287 287 288 288 287 284 283 283 283 283 283 282 281 280
287 287 287 288 288 289 289 289 289 289 288 286 285 285 285 285 285 285 287 288 285 283 284 284 284 285 286 287 286 287 287 288 286 283 283 285 285 284 283 281 280 279 279
286 286 287 286 287 287 287 287 287 286 285 285 284 284 284 284 283 284 287 286 285 284 284 284 284 285 286 287 287 287 287 287 286 286 287 286 284 282 281 281 279 278 277
286 286 286 286 286 286 286 286 285 285 285 284 284 283 283 283 284 284 286 285 285 284 284 283 285 286 287 287 287 287 287 287 286 286 286 284 283 281 280 280 279 277 275
282 284 284 285 285 285 285 285 285 285 284 284 284 284 284 283 284 285 285 285 285 284 283 284 284 285 286 286 286 286 286 286 286 285 285 284 282 281 279 278 277 276 274
281 284 285 285 285 285 285 284 284 285 286 286 285 285 284 284 284 285 286 285 285 285 284 285 285 285 285 286 286 286 286 286 285 284 283 282 281 279 277 276 275 274 272
282 284 286 286 285 285 285 285 285 284 283 284 285 285 286 285 285 286 286 286 286 286 285 285 285 285 285 285 285 285 285 284 283 282 281 280 279 278 276 275 274 273 271
282 285 285 285 285 285 285 285 284 283 282 281 283 284 285 286 286 285 286 286 286 286 285 285 285 285 285 285 284 283 283 282 281 280 279 278 278 277 275 274 272 271 270
281 283 284 284 284 284 284 283 281 280 279 279 279 280 282 284 282 282 283 284 284 283 282 282 282 282 282 281 280 280 280 279 279 278 277 276 275 275 273 272 271 270 269
279 281 282 282 282 281 281 280 279 278 277 277 277 277 278 279 277 277 277 278 278 278 278 278 278 278 278 277 277 276 276 276 275 275 274 273 273 272 272 271 270 268 267
277 278 278 278 277 277 277 277 277 276 275 274 274 274 276 276 275 275 274 275 275 275 275 275 275 274 274 274 274 273 273 272 272 272 272 271 271 270 269 268 267 266 265
275 275 275 275 275 275 275 274 274 273 272 272 272 273 273 272 272 272 272 272 272 272 272 272 272 271 271 271 271 271 270 270 269 269 269 268 268 267 266 266 265 265 264
273 272 272 272 272 272 271 271 271 271 271 271 271 270 270 270 270 269 269 269 268 268 268 268 268 268 268 268 267 267 267 267 266 266 266 265 265 265 265 264 264 264 263
270 270 270 269 269 269 268 268 267 267 267 267 266 266 266 266 266 265 265 266 266 266 266 266 266 266 266 265 265 265 265 265 265 265 265 264 264 264 263 263 263 263 262
267 267 267 267 266 266 266 266 266 266 266 265 265 265 265 265 265 265 265 265 265 265 265 264 265 265 265 265 264 264 264 264 264 264 263 263 263 263 262 262 262 262 261

GFSGL_925_thetae_075.txt.gz
Theta_e
308 308 308 309 309 310 310 311 311 311 312 312 312 312 312 312 311 310 308 309 309 309 309 307 306 305 304 302 300 297 296 297 299 291 289 287 287 285 284 284 284 284 283
306 306 307 308 308 308 309 309 309 309 310 310 310 310 310 310 310 308 307 307 308 308 308 306 305 304 303 302 299 296 295 295 297 288 285 285 285 284 285 286 287 286 283
307 307 307 307 306 307 307 307 308 308 308 308 308 308 309 309 309 309 307 307 306 306 306 305 304 303 302 301 298 296 295 293 293 290 285 285 285 286 286 285 284 284 283
303 304 304 305 305 305 305 305 306 306 306 306 306 306 307 307 307 306 305 304 304 304 304 304 304 303 301 300 298 296 294 291 290 290 287 285 285 284 284 282 282 283 283
301 301 301 301 302 302 303 303 303 304 304 304 304 305 305 305 305 305 305 303 303 302 302 302 302 302 302 301 299 295 292 291 289 289 286 285 284 282 282 282 282 283 283
301 299 299 299 299 300 300 301 301 302 301 302 302 302 303 303 304 305 305 303 302 301 300 300 300 299 299 299 298 296 295 291 289 289 287 285 283 282 283 282 283 282 282
300 300 298 297 296 296 296 298 299 299 300 300 300 300 301 301 302 302 302 301 300 299 298 296 296 296 296 295 294 292 290 290 292 290 287 285 283 283 283 282 284 284 284
298 298 297 295 294 295 295 295 295 296 297 298 298 299 299 299 300 300 299 297 295 295 294 294 293 293 293 292 291 289 289 289 289 288 288 287 287 286 285 285 285 283 283
294 294 293 293 292 291 292 293 293 293 294 295 295 296 297 296 297 296 295 293 292 291 291 291 290 290 290 290 289 288 287 287 287 287 289 288 287 287 286 285 283 283 281
291 290 290 290 290 290 290 291 291 292 292 293 293 293 293 294 295 294 292 290 289 289 289 288 288 288 288 287 287 287 285 285 287 286 286 287 288 287 286 285 285 282 281
291 290 290 289 288 289 289 290 290 290 290 291 291 291 291 291 291 291 290 289 289 288 287 286 286 286 286 287 287 286 286 285 285 286 286 286 286 286 285 285 286 284 281
289 289 289 289 288 288 288 288 289 288 288 288 288 288 289 288 288 288 288 288 288 287 286 285 285 285 286 287 286 285 286 285 285 285 285 284 284 284 284 283 284 283 283
288 288 288 288 287 287 287 287 286 286 287 287 286 285 286 286 286 285 286 287 288 285 285 284 284 285 286 286 286 286 286 285 285 284 284 284 285 284 283 283 282 282 281
283 285 287 287 287 286 286 286 286 286 286 285 285 284 285 284 284 284 284 287 285 285 285 284 284 284 285 286 286 286 286 286 286 286 286 286 284 283 282 282 280 279 278
280 281 283 284 285 285 285 285 285 285 284 284 284 284 283 283 284 284 285 286 285 285 284 284 284 285 286 287 286 286 286 287 287 286 285 284 282 281 281 281 280 278 277
278 279 282 283 283 284 285 285 285 285 285 285 285 285 284 283 283 285 286 285 285 284 283 283 284 286 286 286 286 286 286 286 286 285 284 284 284 283 281 279 279 278 276
278 278 278 282 282 285 285 284 284 285 285 285 285 285 285 284 284 285 286 286 285 285 284 284 284 285 285 286 286 286 285 285 285 285 285 284 283 281 279 278 277 276 274
277 278 279 279 283 285 285 284 284 284 283 283 284 285 286 285 285 286 286 286 286 285 285 284 285 285 285 285 285 285 286 285 284 283 282 281 280 280 277 276 275 274 273
275 276 279 282 284 285 284 284 283 282 280 280 282 284 285 285 285 286 286 286 284 283 284 284 284 284 284 284 284 283 283 282 281 280 280 279 278 278 276 275 274 274 272
275 277 279 282 283 284 283 282 281 279 278 278 278 279 282 284 282 281 281 281 280 279 280 280 280 280 280 280 280 280 279 279 279 278 278 277 276 276 275 274 273 272 271
274 276 278 280 281 281 281 280 279 278 277 276 276 277 278 279 276 276 276 276 276 276 276 277 277 277 277 277 277 276 276 275 275 275 274 274 274 273 273 272 271 270 270
274 275 276 277 278 279 278 278 277 275 274 274 273 273 276 275 274 273 273 273 273 273 274 274 274 274 274 274 274 274 273 273 273 272 272 271 271 271 270 270 269 268 267
273 274 273 273 274 274 274 274 273 273 272 272 271 271 271 271 270 270 270 270 270 271 271 271 271 271 271 271 271 271 270 270 270 270 270 269 269 268 268 268 267 266 265
272 271 271 271 271 271 270 270 270 270 269 269 269 268 268 267 267 267 267 266 267 267 267 267 267 267 267 267 267 267 267 267 267 266 266 266 266 265 265 265 265 265 264
270 269 269 269 268 268 268 268 267 267 266 266 266 266 266 266 267 267 267 267 267 267 267 267 267 267 267 266 266 266 266 266 265 265 265 264 264 264 264 264 264 263 263
267 267 267 267 266 266 266 265 265 265 265 265 265 265 265 265 265 265 265 265 265 265 265 265 265 265 265 265 265 265 265 264 264 263 263 263 263 263 263 263 263 262 262

GFSGL_925_thetae_078.txt.gz
Theta_e
306 307 307 307 306 306 306 307 307 308 308 309 309 310 310 311 311 311 310 310 311 311 311 310 309 308 307 306 304 302 300 299 300 302 298 296 292 290 288 286 287 288 286
304 305 305 305 306 306 306 305 305 306 306 306 307 307 308 308 309 309 309 308 307 307 307 308 307 307 306 306 303 301 300 298 299 300 296 291 289 289 287 286 285 286 286
303 303 303 303 304 304 304 304 304 304 304 304 305 305 305 306 305 305 305 306 305 306 306 306 306 306 305 304 303 301 299 298 297 297 292 287 286 286 285 284 284 284 286
301 301 301 300 300 301 301 301 302 302 303 303 303 303 303 303 303 304 302 303 304 304 304 305 305 305 304 303 302 301 300 296 295 294 290 286 286 285 284 283 283 283 283
299 299 298 298 299 300 300 300 300 300 300 300 301 302 302 302 302 302 302 300 300 301 301 302 303 303 303 303 303 300 298 295 292 292 291 287 285 284 284 284 283 282 283
298 298 297 297 297 297 297 298 298 298 298 298 297 298 299 300 300 300 300 298 298 298 299 299 300 300 300 300 300 300 299 295 292 291 291 288 287 285 284 283 283 282 282
296 296 296 295 296 296 295 295 296 296 296 296 296 296 297 297 297 298 299 297 296 296 296 296 297 297 297 297 297 296 296 296 295 293 292 290 288 285 284 283 283 283 284
295 295 294 293 293 293 293 292 292 292 293 293 293 294 294 295 296 297 296 295 294 294 294 295 294 293 293 293 293 293 292 292 292 291 291 290 289 286 287 285 283 284 284
294 294 293 292 291 290 290 290 290 290 290 291 291 292 292 292 293 294 294 293 292 292 292 292 292 291 291 291 290 289 289 289 290 290 290 289 289 288 286 284 283 283 281
291 291 291 291 290 289 288 288 288 288 289 289 290 290 290 290 291 291 291 290 289 289 290 290 290 289 288 288 288 288 288 287 287 287 288 287 286 285 284 286 284 284 281
289 289 290 290 289 288 288 288 287 287 287 286 287 288 288 289 289 289 289 288 288 288 288 288 288 287 287 287 287 288 287 287 286 287 286 286 286 285 285 285 285 285 283
287 288 289 289 288 287 287 287 287 286 285 285 286 286 287 288 287 287 287 287 287 288 288 287 287 286 285 287 287 288 287 286 285 285 285 285 285 284 284 285 285 285 285
284 284 284 285 286 286 286 286 286 285 285 285 285 285 285 285 285 285 285 285 286 288 287 286 284 284 285 286 287 287 286 285 284 284 284 284 285 285 284 284 284 284 283
282 282 281 280 282 283 284 286 285 285 285 284 283 283 284 284 284 284 284 285 287 286 285 284 284 284 285 286 286 286 285 285 284 285 285 284 284 284 284 284 282 280 280
278 278 279 279 281 282 283 283 285 285 284 284 284 284 284 283 283 284 285 285 285 285 284 284 284 285 285 286 286 286 285 285 285 285 285 284 283 283 282 282 281 278 278
275 275 275 276 278 281 282 282 285 285 285 285 285 285 285 284 283 284 286 285 285 284 284 283 284 286 286 286 286 285 285 285 285 285 285 285 284 283 282 280 279 278 276
272 273 273 274 275 278 281 282 282 284 284 284 284 285 285 285 284 285 286 286 285 285 284 284 284 285 285 285 285 285 285 286 286 286 285 284 283 281 280 278 277 276 275
272 272 273 273 274 277 281 282 284 283 283 283 284 284 285 285 286 286 286 286 285 285 284 284 284 284 284 284 284 284 283 283 283 283 283 282 281 280 278 277 276 276 274
271 272 273 273 275 278 280 283 283 282 281 280 282 283 283 283 285 286 285 284 282 281 281 282 282 282 282 282 282 282 281 281 280 280 279 279 278 278 277 276 275 274 274
271 272 273 274 276 279 282 282 281 279 279 278 277 278 281 283 281 278 278 278 277 276 276 277 277 278 278 278 279 278 278 278 278 277 277 277 276 276 275 275 274 273 272
270 271 273 275 277 279 280 280 278 277 276 275 275 275 276 277 273 273 273 273 273 273 273 274 274 275 275 276 276 276 276 275 275 275 274 274 274 274 273 273 272 271 271
270 272 273 273 275 276 276 276 275 274 273 272 271 271 272 272 271 270 270 270 270 270 271 271 272 272 272 272 272 272 272 272 272 272 272 271 271 271 271 270 270 269 268
270 271 272 272 272 273 273 272 272 271 270 270 270 270 270 269 269 269 268 268 269 269 269 269 269 269 269 269 269 269 269 269 268 268 268 268 269 269 269 268 268 267 267
269 269 270 270 270 270 270 269 269 269 268 268 268 268 267 267 267 267 267 267 267 267 267 267 267 267 267 267 267 267 266 266 266 266 266 266 266 266 266 266 266 265 265
267 267 267 267 268 268 267 267 267 267 267 266 266 266 266 266 266 266 266 266 266 266 266 266 266 266 266 266 266 266 266 266 266 265 265 265 265 264 264 264 264 264 264
266 266 265 266 266 266 266 265 265 265 265 265 265 265 265 265 265 265 265 265 265 265 265 265 265 265 265 265 265 265 264 264 264 263 263 263 263 263 263 263 263 263 262

GFSGL_925_thetae_084.txt.gz
Theta_e
301 301 302 302 302 303 302 302 302 302 302 302 302 302 303 304 304 305 306 307 308 309 309 310 310 310 310 310 309 308 308 307 306 307 308 307 306 305 304 304 304 303 303
299 300 300 300 300 300 300 300 301 301 301 301 301 300 300 300 301 301 302 303 304 304 305 305 306 306 307 307 308 308 306 306 305 305 305 305 304 303 302 301 301 300 298
298 298 297 297 297 297 297 297 297 298 299 299 299 299 299 298 298 298 299 300 301 302 302 302 302 303 303 304 305 305 305 305 304 303 304 304 303 300 298 296 295 295 294
295 295 295 295 294 294 295 295 295 295 296 297 297 297 297 297 297 296 296 296 298 298 298 299 299 300 300 301 302 303 303 303 303 301 301 301 300 295 293 291 289 290 289
293 293 293 293 293 293 293 294 294 294 294 294 295 295 296 295 295 294 294 294 294 294 295 295 295 296 296 298 298 300 301 300 301 300 299 299 297 288 288 290 289 288 287
292 292 292 292 291 291 292 292 292 292 292 292 293 293 294 295 295 294 293 292 292 292 292 293 293 294 295 296 297 297 297 298 298 298 299 298 297 296 291 289 287 285 286
292 291 291 291 290 290 290 290 291 291 291 291 291 291 291 292 292 292 291 290 290 290 291 291 291 292 293 293 294 294 294 295 295 296 296 296 296 296 293 288 287 286 287
291 291 290 290 289 289 289 289 289 289 289 289 289 290 290 290 290 290 289 289 289 290 290 289 289 290 291 291 291 291 291 291 292 292 292 292 292 294 294 291 289 287 286
290 289 289 288 288 288 288 288 288 288 288 289 289 289 289 290 290 289 287 287 288 288 288 289 289 289 289 289 289 289 289 289 290 289 289 289 290 291 291 289 286 285 285
287 286 287 286 286 286 285 285 286 285 286 286 288 288 288 289 288 287 286 286 287 287 288 288 288 288 288 288 288 288 288 289 288 288 288 288 288 289 289 289 286 285 284
284 284 284 284 283 283 282 282 282 282 282 283 284 286 286 286 287 286 285 285 286 286 286 287 287 287 287 287 287 287 287 287 288 288 287 286 287 287 287 286 286 285 284
281 281 281 281 281 281 280 281 281 282 282 281 282 284 285 285 285 285 284 284 285 285 286 287 286 286 286 287 287 286 286 287 287 287 286 286 285 285 284 284 284 284 284
278 278 278 278 278 278 278 278 280 282 283 282 282 282 283 284 284 285 284 284 285 285 286 285 285 285 285 285 285 285 286 287 286 286 286 285 284 284 284 283 283 284 284
275 276 275 274 275 275 277 277 278 280 281 282 282 283 284 285 285 285 284 284 285 285 284 284 284 285 285 285 286 286 285 285 285 285 284 283 283 283 282 282 281 281 280
273 273 272 273 273 273 274 275 276 277 279 281 282 283 284 285 286 285 285 285 285 284 284 284 285 286 286 286 285 285 284 284 284 284 283 283 282 282 281 281 281 280 279
270 270 271 270 272 272 273 274 275 277 279 281 283 284 285 284 284 286 285 285 285 284 284 285 285 285 286 286 285 285 284 284 284 283 283 283 283 282 281 280 280 279 278
269 269 269 269 271 271 272 273 274 276 278 281 282 283 284 284 285 285 286 285 284 284 284 284 284 284 284 284 284 283 283 282 284 284 283 283 282 282 281 280 279 279 278
270 270 268 269 269 270 271 272 273 275 277 280 281 281 281 281 283 285 286 285 283 281 279 278 278 278 279 279 279 280 280 281 281 281 281 281 281 281 280 280 279 278 277
269 269 269 268 269 270 270 272 274 276 279 280 279 279 279 279 280 281 284 280 277 275 275 275 275 276 276 277 277 278 278 278 279 279 278 278 278 278 277 277 276 275 275
269 270 269 268 269 271 273 274 276 279 277 276 276 275 275 276 275 275 275 274 274 273 273 273 273 274 274 274 274 275 275 275 275 275 275 275 275 275 275 274 274 274 274
268 268 269 268 270 271 272 275 276 275 274 272 272 273 272 272 271 270 271 271 271 271 271 272 272 272 272 272 272 272 273 272 273 272 272 273 273 273 272 272 272 272 271
266 267 268 269 270 271 271 272 272 272 271 271 270 269 270 271 269 268 269 269 269 269 269 269 269 269 269 269 269 269 269 270 270 270 270 270 271 271 271 270 270 270 269
267 267 268 268 269 269 270 269 269 269 269 268 268 268 268 268 268 267 267 267 267 267 267 268 268 268 268 268 268 268 267 267 267 267 267 267 267 267 268 268 268 268 267
267 267 266 267 267 268 268 267 267 267 267 267 267 267 267 267 266 266 266 266 266 266 266 266 266 266 266 266 266 266 266 266 266 266 266 266 266 266 266 266 266 266 265
266 266 266 265 266 266 266 266 266 266 266 266 266 265 265 265 265 265 265 265 265 265 265 265 265 265 265 265 265 265 265 265 265 265 265 265 265 265 265 265 265 264 264
265 265 265 265 265 265 264 264 264 265 264 264 264 264 264 264 264 263 263 263 264 264 264 264 265 265 265 265 265 265 265 264 264 264 264 264 264 264 264 264 263 263 263

GFSGL_925_thetae_087.txt.gz
Theta_e
301 301 300 300 299 299 299 299 299 299 299 299 300 300 301 301 301 301 301 302 303 304 305 307 307 307 307 308 309 309 309 308 308 308 308 308 308 307 307 306 306 306 305
298 298 297 297 297 296 296 296 296 296 296 297 297 297 298 298 298 298 298 299 299 301 302 304 304 304 304 304 304 306 306 306 307 306 306 306 306 305 305 304 304 304 303
296 296 295 295 295 294 294 294 294 294 294 295 295 295 295 296 296 297 296 296 297 297 298 300 300 301 300 300 300 300 302 303 303 304 303 304 304 304 303 302 301 300 300
295 294 294 293 293 293 292 292 292 292 292 293 293 293 294 294 295 295 294 294 294 294 295 295 295 296 296 297 297 298 298 299 299 301 301 302 302 302 300 296 294 295 297
294 293 292 292 291 291 291 290 290 290 290 291 291 291 292 292 293 293 292 292 291 292 292 293 293 292 293 293 293 294 295 296 297 298 299 299 300 299 293 296 292 293 293
292 291 291 291 290 290 289 289 289 289 289 289 289 290 290 291 291 292 292 290 290 290 291 291 291 291 291 291 291 292 294 294 294 294 295 296 296 297 297 295 292 291 289
291 290 290 289 289 289 288 288 288 288 288 288 288 288 288 289 290 290 290 289 289 289 290 290 290 290 290 290 290 290 291 291 292 292 292 293 293 293 294 294 291 290 291
290 289 288 288 287 287 287 287 287 286 286 286 286 287 287 288 289 288 288 287 287 288 288 289 289 289 289 289 289 289 289 289 290 290 290 290 290 290 290 290 291 290 288
288 288 287 286 286 286 286 286 286 285 285 285 285 285 285 286 288 288 287 286 286 286 287 287 287 287 288 288 288 289 289 288 288 288 289 289 289 288 288 289 289 287 287
286 286 285 285 284 284 284 284 283 283 283 283 284 284 285 285 286 286 286 286 285 286 286 286 286 287 287 288 288 288 288 287 287 287 288 288 287 287 287 288 289 287 285
285 285 284 283 282 282 281 281 281 281 282 282 283 283 283 284 284 285 285 285 285 285 285 285 286 286 287 286 287 287 287 287 287 287 287 287 286 286 286 286 286 286 284
283 282 282 282 281 280 280 280 280 280 281 283 284 284 284 283 284 285 286 286 285 285 285 285 286 285 286 286 286 286 286 286 286 287 287 287 286 284 284 284 284 285 284
280 280 280 280 279 279 278 278 278 279 280 281 282 283 283 283 284 285 286 285 285 285 285 285 285 285 285 285 285 286 285 285 286 286 286 284 283 282 283 282 282 283 283
278 278 278 277 277 277 276 276 277 278 279 279 280 281 282 282 283 285 286 285 286 285 285 284 284 286 286 286 285 285 285 285 284 284 284 283 282 282 281 281 281 281 280
276 276 275 275 274 274 274 275 275 276 277 278 279 280 281 282 284 285 285 286 285 285 285 284 286 285 286 285 285 284 284 284 284 284 284 283 282 282 281 281 281 280 279
274 273 273 272 272 273 274 274 275 276 277 278 279 281 282 283 284 284 285 285 286 285 284 285 284 284 284 283 283 283 283 283 284 284 284 283 283 282 281 281 280 280 278
272 271 271 271 271 272 273 273 274 275 276 278 280 282 282 282 281 282 285 285 285 284 283 282 281 281 281 281 281 281 281 281 282 283 283 283 282 282 281 280 280 279 278
271 271 270 270 271 271 271 272 272 273 275 277 280 280 280 279 278 280 283 284 283 281 278 277 277 277 277 277 277 277 278 279 279 279 279 279 279 280 280 279 279 279 277
271 270 270 269 270 270 271 272 274 275 277 279 278 277 276 276 276 279 279 279 277 276 275 275 274 274 274 275 275 275 275 275 276 276 276 276 276 277 276 276 276 275 276
270 269 268 269 269 271 272 273 275 277 277 276 274 274 273 274 274 273 273 273 273 273 272 272 272 273 273 273 273 274 274 274 274 274 274 274 274 274 274 274 274 274 273
268 269 269 269 271 272 272 273 274 275 275 274 272 272 273 271 270 270 270 271 271 271 271 271 272 271 271 271 272 271 271 271 271 271 271 272 272 272 272 271 271 271 271
267 268 268 269 270 271 271 271 272 272 272 271 271 270 270 270 269 269 269 270 270 270 270 269 268 268 269 269 269 268 268 268 268 268 268 268 268 269 269 270 269 269 269
267 267 268 269 270 270 270 270 270 270 270 269 269 269 269 269 268 268 268 269 268 268 268 268 268 268 267 267 267 267 267 267 267 267 267 267 267 267 267 267 267 267 267
266 267 267 268 268 268 269 269 268 268 268 268 267 267 267 268 268 267 267 267 267 267 267 266 266 266 266 266 266 266 266 266 266 266 266 266 266 266 266 266 266 265 265
266 266 266 266 266 267 267 267 267 266 266 267 267 267 266 266 266 265 265 265 265 265 265 266 266 266 266 266 266 266 266 265 265 265 265 265 265 265 265 265 265 265 264
265 265 265 265 265 265 265 265 266 265 266 266 266 266 266 265 265 264 264 264 265 265 265 265 265 265 266 266 266 265 265 265 265 264 263 264 264 264 264 264 264 263 263

GFSGL_925_thetae_093.txt.gz
Theta_e
299 298 297 296 295 295 294 293 293 292 292 292 292 291 291 291 291 291 291 292 292 292 292 292 292 292 293 293 294 296 297 298 299 298 298 298 298 298 298 298 298 298 299
296 296 295 294 293 292 292 291 291 291 291 291 290 290 290 290 290 290 290 290 291 291 291 291 291 291 291 291 291 292 293 294 295 295 295 294 294 294 295 295 296 296 297
294 294 293 292 292 291 291 291 290 290 290 289 290 290 290 290 289 289 288 288 288 289 289 289 290 289 289 289 290 290 290 290 290 291 291 291 292 292 293 293 293 293 294
293 292 292 291 291 290 290 289 289 290 290 290 289 289 289 288 288 288 287 288 288 288 288 288 288 288 288 288 288 288 289 289 289 289 289 290 291 291 292 292 292 292 293
292 292 291 290 290 289 289 289 289 289 288 288 288 288 287 287 286 286 287 287 287 287 287 286 286 286 286 286 287 287 287 288 288 288 289 289 290 291 291 291 291 291 290
291 290 289 289 289 289 289 288 288 288 287 287 286 286 286 286 286 286 286 286 285 286 285 285 285 285 285 285 286 286 287 287 288 288 288 289 289 289 289 289 289 288 289
290 289 289 289 289 288 287 287 287 286 286 285 285 285 285 285 285 284 285 285 285 285 285 285 284 285 285 285 285 286 286 287 287 287 288 287 287 287 287 287 288 288 288
289 288 288 288 288 287 286 286 286 285 285 284 284 284 284 284 284 284 285 284 284 284 284 284 284 284 285 285 286 287 286 286 286 286 286 286 286 287 287 286 285 286 286
288 288 287 287 286 286 287 286 285 285 284 284 283 283 283 284 283 284 284 284 284 285 285 284 284 284 285 285 286 286 286 285 286 286 285 286 286 286 285 284 284 285 286
287 287 286 286 286 286 285 285 285 284 283 283 283 282 282 282 282 283 284 284 284 285 286 285 285 285 285 285 286 286 285 286 284 285 284 284 284 283 283 283 282 282 284
286 286 285 285 285 285 284 283 283 283 282 282 281 281 281 280 281 281 282 283 284 285 286 285 285 285 285 286 287 285 286 285 284 284 283 283 282 282 282 282 281 281 279
285 285 285 284 284 283 283 283 282 282 282 281 280 280 279 279 280 281 282 283 284 285 284 285 285 285 285 286 285 285 284 284 284 283 282 282 282 281 281 281 280 280 280
284 284 283 283 282 282 282 282 282 281 279 278 277 277 277 279 280 281 282 284 283 284 284 284 284 285 285 284 284 284 284 283 283 283 282 282 281 281 282 282 281 280 280
283 283 282 282 281 281 280 280 280 279 278 276 277 277 278 279 280 282 283 282 282 283 285 285 284 284 284 283 283 282 283 283 283 283 282 282 282 281 281 280 280 281 279
282 282 281 281 280 279 279 278 277 278 276 277 277 278 278 279 281 282 282 281 281 282 284 284 283 282 281 281 281 280 281 281 281 281 282 281 281 280 280 279 279 278 276
281 280 280 280 279 278 277 278 277 278 278 277 277 279 280 281 280 280 280 280 281 283 284 281 280 279 278 278 278 278 278 278 278 279 279 279 279 279 278 278 278 277 276
281 280 279 279 277 276 276 275 275 279 278 278 277 279 278 278 277 279 279 278 280 281 281 279 278 277 276 276 276 275 275 276 276 276 276 276 276 277 276 276 276 276 275
280 279 278 276 276 275 275 274 273 273 273 276 277 276 275 275 276 276 276 277 279 279 278 277 276 275 274 274 274 274 274 274 274 274 274 274 274 274 275 274 274 275 274
279 277 275 275 274 274 274 273 272 272 273 273 274 275 274 274 274 274 275 275 275 275 274 274 274 273 273 273 272 272 272 272 272 272 272 273 273 273 273 273 273 273 273
276 275 274 274 273 273 273 272 271 271 272 272 273 273 273 273 273 272 272 272 272 271 271 271 271 271 271 271 271 270 270 270 270 269 269 270 270 271 271 271 271 271 271
274 274 273 272 272 272 272 271 270 271 271 271 271 271 272 272 271 270 270 270 270 269 269 269 269 269 269 269 269 269 268 268 268 268 268 268 268 268 269 269 269 269 269
274 273 272 272 271 271 270 270 270 270 270 270 270 270 270 270 270 270 269 269 269 269 268 268 267 267 267 267 267 267 267 267 267 267 267 267 267 267 267 267 267 268 268
272 272 271 271 270 269 269 269 269 269 269 269 269 269 269 269 269 269 269 269 268 268 268 267 267 266 266 266 266 266 266 266 266 266 266 266 266 266 266 266 266 266 266
271 270 270 269 269 269 269 268 268 268 268 268 268 268 268 268 268 268 268 268 268 267 266 266 266 266 266 265 265 265 265 265 265 265 265 265 265 265 265 265 265 265 265
269 269 269 269 268 268 268 268 268 267 267 267 267 267 267 267 267 267 267 267 267 267 268 267 266 265 265 265 265 265 265 265 265 265 265 264 264 264 264 264 264 264 264
267 268 268 267 267 267 267 267 267 267 266 266 266 266 266 266 266 266 267 267 267 267 267 266 265 265 265 265 265 265 265 265 265 264 264 264 264 264 263 263 263 263 263

GFSGL_925_thetae_096.txt.gz
Theta_e
303 301 299 297 296 295 294 293 293 292 292 291 291 290 290 290 290 289 289 289 289 289 289 289 289 289 289 289 289 289 290 291 292 292 292 291 290 290 290 291 291 292 292
298 297 295 294 294 293 292 292 291 291 290 290 290 290 290 289 289 289 289 289 288 288 288 288 288 288 288 288 287 287 288 289 289 289 289 289 289 289 289 290 290 291 291
296 294 293 292 292 292 291 290 290 290 290 290 289 289 288 288 288 288 288 288 288 288 288 287 287 286 286 286 286 286 287 287 287 288 288 288 288 288 289 289 290 290 290
294 293 292 292 291 290 290 289 290 289 288 288 288 288 288 288 287 287 287 287 287 287 286 286 285 285 284 285 285 286 286 286 286 287 287 288 288 288 288 289 289 288 288
292 292 291 290 289 289 289 288 288 288 288 287 287 287 287 287 286 287 286 286 285 285 285 284 284 284 284 285 285 285 286 286 287 287 287 287 287 287 287 286 286 287 287
292 291 290 289 289 288 287 287 287 287 287 287 287 287 286 286 286 285 284 284 284 284 284 284 284 284 284 284 284 285 286 287 287 286 286 286 286 285 286 286 286 287 285
291 290 289 288 288 287 287 286 287 287 287 286 286 286 286 285 284 284 284 284 284 284 284 284 284 284 284 284 285 286 285 285 286 286 286 285 286 286 286 285 284 284 284
290 289 288 288 287 286 286 287 287 287 287 286 286 286 285 284 283 283 284 283 284 284 285 285 285 284 284 285 285 285 285 285 285 284 285 285 285 284 283 282 282 282 283
288 288 287 287 286 286 286 287 286 286 286 285 284 285 284 283 283 283 284 283 283 284 284 285 285 285 284 285 286 286 285 286 284 284 284 283 283 283 282 282 280 278 281
288 287 287 286 286 286 286 286 286 286 284 283 283 283 283 283 282 282 282 283 283 283 284 285 284 285 284 285 287 285 285 285 284 283 283 283 282 282 282 281 279 277 277
288 286 285 285 285 285 285 285 285 283 283 283 282 283 282 282 282 282 282 283 283 284 284 283 283 284 285 286 286 285 285 284 283 283 283 283 283 283 282 281 280 278 277
286 285 284 284 284 284 284 284 283 283 282 282 282 282 282 282 281 282 282 282 283 283 283 283 284 285 285 285 284 284 284 283 283 283 283 283 282 282 282 281 280 279 278
285 283 283 283 282 282 283 283 283 282 283 281 281 280 280 281 281 281 282 282 282 282 282 284 284 284 284 283 283 282 283 283 282 282 282 281 281 281 281 282 281 280 279
283 282 282 281 282 282 282 282 282 282 281 280 279 277 278 279 280 281 282 281 281 281 282 283 284 283 282 282 282 282 282 282 281 281 280 281 281 280 280 279 279 280 279
282 281 281 281 281 281 281 281 280 281 280 279 277 277 278 279 280 281 281 280 280 280 282 283 283 282 282 281 281 280 281 281 281 280 280 280 279 279 278 278 278 277 276
281 280 280 280 280 280 279 280 280 280 279 278 277 278 279 279 279 279 280 280 280 281 281 282 281 280 279 278 278 279 278 278 278 277 277 277 277 277 277 277 276 276 275
283 281 280 280 279 279 278 279 279 278 279 277 277 278 277 276 277 278 278 278 278 279 280 279 278 276 276 275 275 275 275 275 275 276 276 275 276 276 275 275 275 275 274
282 281 281 280 279 278 277 277 278 278 278 277 276 275 275 275 275 275 275 278 277 277 276 275 274 274 274 274 274 274 274 273 274 274 274 273 273 273 273 273 273 273 273
280 280 279 278 277 277 277 276 275 274 274 275 276 275 274 274 274 274 275 275 275 274 274 273 273 273 273 272 272 272 271 271 270 270 271 271 271 272 272 272 272 272 272
279 278 278 277 277 277 276 274 273 273 272 272 272 273 273 273 273 273 273 273 273 272 272 272 271 271 271 271 271 270 269 269 269 268 268 268 269 269 269 270 270 270 270
278 276 276 276 276 276 274 273 273 272 272 272 272 272 271 272 272 272 272 271 271 271 271 270 270 270 270 270 269 268 268 268 267 267 267 267 268 268 268 268 268 268 268
275 275 275 275 275 273 273 272 271 271 271 271 271 271 270 271 271 270 270 270 269 269 269 269 269 269 269 268 267 267 267 267 267 266 266 266 266 266 267 267 267 267 267
274 273 273 273 272 272 271 270 270 270 270 270 270 270 270 269 269 269 269 269 269 269 268 268 268 267 267 267 267 267 267 266 266 266 266 266 265 265 265 266 265 266 266
273 272 272 271 270 270 270 270 270 269 269 269 269 269 269 269 268 268 268 268 268 268 268 268 267 267 268 268 267 266 266 265 265 265 265 265 265 265 264 264 264 264 264
272 271 270 270 269 269 269 269 268 268 268 268 268 268 268 267 267 268 267 267 267 267 267 267 267 267 267 266 266 265 265 265 265 265 264 264 264 264 264 264 264 263 263
270 269 269 269 268 268 268 268 268 268 267 267 267 267 267 267 267 267 267 266 267 267 266 267 266 266 266 265 265 265 265 264 264 264 264 264 264 264 264 264 263 263 263

GFSGL_925_thetae_102.txt.gz
Theta_e
318 321 321 319 317 316 314 310 303 297 294 293 292 291 291 291 290 290 289 289 288 288 288 288 288 287 286 285 284 285 285 285 286 286 285 285 286 286 285 285 285 285 285
315 315 313 313 311 314 306 299 295 294 292 292 291 291 290 290 289 289 288 288 288 288 287 287 285 284 284 284 284 284 285 285 285 285 285 285 286 285 285 285 285 284 284
307 309 307 305 307 304 297 294 292 292 291 290 290 289 289 289 288 288 288 287 287 287 287 286 284 284 284 284 284 284 284 285 285 285 285 285 285 285 284 285 283 283 284
303 304 302 300 300 296 293 292 291 291 290 289 289 289 288 288 287 287 287 287 287 286 286 285 284 284 284 284 284 284 285 285 285 285 285 285 284 284 284 283 282 282 283
300 300 298 295 293 292 291 291 290 290 289 288 288 288 287 287 287 287 287 287 287 286 285 285 284 284 284 284 284 285 285 285 286 285 286 284 284 284 283 282 281 281 282
297 295 293 292 291 291 290 290 289 288 288 287 287 287 287 287 287 287 287 287 286 285 285 284 284 284 284 284 284 285 285 286 286 286 284 283 284 284 282 281 280 279 279
294 293 291 290 290 289 289 288 288 287 287 287 286 286 286 286 286 286 286 286 285 285 285 285 285 285 284 284 285 285 285 285 285 284 283 283 283 282 281 281 279 278 278
292 291 290 290 289 289 288 287 287 287 286 286 286 286 286 286 286 286 285 285 285 284 284 284 284 284 284 284 285 286 285 285 284 284 283 283 282 282 281 280 280 280 281
291 291 290 289 289 288 287 287 286 286 286 286 286 285 286 285 285 285 285 285 284 284 284 283 283 283 283 284 286 284 284 284 284 283 283 283 283 282 281 281 280 278 278
291 291 290 289 289 288 287 286 286 286 286 285 285 285 285 285 284 284 284 284 283 283 283 283 283 283 284 284 284 284 283 284 284 283 284 283 283 282 282 281 279 277 276
291 291 290 289 288 287 286 285 285 285 284 284 284 284 284 284 283 284 284 283 282 282 283 282 283 283 284 284 284 283 283 283 283 283 283 283 283 283 282 280 279 279 278
291 290 290 288 287 286 285 285 284 284 283 283 283 283 283 283 283 283 282 283 282 282 281 281 282 283 284 284 283 283 282 282 283 282 281 281 282 282 281 280 279 279 278
290 288 289 287 286 285 284 284 283 282 283 283 283 283 283 282 282 282 282 282 282 281 281 281 281 282 283 282 281 282 282 282 281 281 281 280 280 279 279 279 279 279 279
288 287 286 286 284 283 283 283 283 282 282 282 283 282 282 281 282 282 282 281 281 280 280 280 281 282 282 281 281 281 280 280 280 280 279 279 279 279 278 278 278 277 278
285 284 284 284 283 282 282 283 283 283 284 286 284 283 282 281 282 282 281 280 280 280 281 280 281 282 281 280 280 279 279 279 279 279 278 278 277 277 276 276 276 276 275
284 282 281 281 281 282 282 281 282 283 285 282 282 282 281 281 281 281 280 280 281 281 280 280 280 280 279 279 279 278 278 278 278 277 276 276 275 275 274 274 274 274 274
284 282 281 281 282 281 281 281 282 283 280 280 280 280 279 280 280 279 279 280 279 279 278 279 279 278 279 278 278 277 277 276 276 276 275 273 273 272 272 272 272 272 272
283 283 282 284 284 283 282 283 283 281 279 280 279 279 280 280 278 277 278 277 278 278 279 279 279 278 278 277 276 275 275 275 275 274 272 271 271 271 271 271 270 270 270
283 282 282 281 281 281 280 280 279 280 279 279 278 278 278 278 277 276 275 277 277 278 278 278 278 277 277 275 275 274 274 273 272 271 270 270 269 270 269 269 269 269 269
282 282 282 281 281 279 279 279 278 278 277 278 277 278 277 276 276 276 275 276 276 276 276 276 276 275 274 274 273 272 272 271 270 269 269 269 269 269 268 268 268 268 268
281 281 280 279 278 279 278 277 276 276 277 277 277 277 277 276 277 276 275 274 275 275 275 275 274 273 272 271 271 271 270 269 268 268 268 269 268 267 267 267 267 267 266
281 280 279 278 278 278 277 278 276 275 275 275 276 276 274 274 274 274 274 274 273 273 273 272 272 271 271 271 270 270 270 268 267 268 267 267 266 266 266 266 266 266 265
278 278 278 277 276 275 274 274 275 275 274 274 274 275 274 273 273 273 273 273 272 271 271 271 270 270 270 270 269 269 268 268 268 267 267 266 265 265 265 265 265 265 265
276 276 275 274 273 273 273 273 273 273 273 273 273 273 273 272 272 272 272 271 271 271 270 270 269 270 269 269 268 268 268 268 267 267 266 265 264 264 264 264 264 264 263
273 273 272 271 271 271 271 271 270 271 271 271 271 272 271 271 270 270 270 270 270 270 270 269 269 268 268 268 268 268 268 267 267 266 264 264 264 263 263 263 263 263 262
271 270 269 269 269 270 270 269 269 270 271 271 271 271 270 270 270 270 269 269 269 269 269 268 268 268 268 268 267 267 267 266 266 265 265 264 263 263 263 263 262 262 262

GFSGL_925_thetae_105.txt.gz
Theta_e
311 315 321 324 326 325 322 319 315 313 312 305 297 293 292 291 291 290 290 290 289 289 288 288 287 287 286 285 285 285 285 285 286 286 286 286 285 285 285 285 285 284 284
312 316 319 320 320 320 318 315 311 311 307 297 293 292 291 290 290 290 289 289 288 288 287 287 286 285 285 285 285 285 285 285 285 285 285 285 285 284 284 284 284 284 284
312 313 314 315 314 313 312 309 306 304 296 292 291 291 290 290 289 289 288 288 287 287 287 286 286 285 285 285 284 284 285 285 284 284 285 285 284 284 284 284 284 283 284
309 309 309 309 309 306 308 302 301 296 293 291 290 290 289 289 288 288 288 287 287 287 286 286 285 285 285 285 284 285 285 285 285 285 286 285 284 284 284 282 282 284 284
304 304 304 304 303 302 300 295 295 292 291 290 289 288 288 288 288 288 287 287 287 286 286 285 285 285 284 284 285 285 285 286 286 286 285 284 284 284 282 282 281 281 283
301 301 302 301 299 297 294 292 291 290 289 289 288 288 288 287 287 287 287 287 286 286 285 285 285 285 285 284 285 285 285 286 285 285 285 284 283 283 281 281 280 280 281
300 300 299 298 295 293 291 290 290 289 288 288 287 287 287 287 287 287 287 286 286 285 285 285 285 285 285 284 285 285 285 285 284 284 284 283 283 282 281 281 280 279 279
296 295 296 294 292 291 290 289 289 288 287 287 287 286 286 286 286 286 286 285 285 285 285 285 285 284 284 284 285 285 285 284 284 284 283 283 282 282 281 281 280 280 282
294 294 292 291 290 289 289 288 288 287 286 286 286 286 286 286 286 285 285 286 285 285 285 284 284 283 283 284 285 284 284 283 284 284 283 283 282 282 282 282 281 278 278
294 294 293 291 290 289 289 288 287 286 287 286 286 285 285 285 285 285 285 285 285 284 284 284 283 283 283 284 284 284 284 283 283 283 283 283 282 282 282 281 280 277 276
294 293 291 290 290 289 288 287 286 285 285 285 285 284 285 285 284 285 285 285 284 284 284 283 282 283 284 284 284 283 283 283 283 283 283 283 282 282 282 281 280 278 277
294 292 290 290 289 289 288 286 285 285 284 284 283 283 283 284 284 284 284 284 284 284 283 282 282 283 283 284 284 283 283 282 282 282 281 281 282 282 282 281 279 279 278
292 290 289 289 288 288 286 285 284 283 283 283 282 283 283 284 284 285 283 283 283 283 282 282 281 282 283 283 282 282 281 281 281 281 281 281 281 280 280 279 278 278 278
291 289 288 288 287 286 285 285 284 283 282 282 282 283 284 284 285 284 283 283 283 283 282 281 281 281 282 282 281 281 281 281 280 280 280 280 279 278 278 277 276 276 276
289 287 286 285 284 283 283 283 283 284 285 285 285 286 288 286 287 284 283 283 282 282 281 280 280 280 281 281 280 279 280 279 279 279 279 278 277 277 276 275 275 274 275
287 285 284 283 282 282 282 281 282 283 284 284 285 288 292 289 284 283 282 282 281 281 281 281 280 279 280 281 279 278 278 278 278 277 276 276 276 275 274 273 273 273 273
288 285 283 282 281 280 280 281 280 281 282 282 284 291 290 284 282 282 282 282 281 282 281 280 279 279 280 280 279 278 278 277 277 276 275 274 273 272 272 272 272 271 271
285 285 284 281 281 280 281 281 281 281 281 285 289 290 282 282 282 281 282 281 281 280 280 279 279 279 279 279 278 277 277 276 275 275 274 273 271 271 270 270 270 270 270
284 283 282 281 281 281 281 281 281 281 282 286 288 283 281 281 282 281 280 279 279 279 279 278 278 278 278 278 277 276 275 274 274 273 272 271 270 269 270 270 269 269 268
282 282 282 281 281 281 280 280 280 280 280 281 281 279 280 280 281 280 279 278 278 277 277 277 277 277 277 276 275 274 274 273 272 272 271 269 269 268 269 268 267 267 267
281 281 281 280 280 280 279 278 278 278 278 278 280 278 278 279 278 278 278 277 277 276 276 275 276 276 275 274 273 273 272 272 271 270 269 268 268 268 267 267 266 266 266
278 279 279 279 279 278 277 277 277 276 277 278 282 278 275 276 277 277 277 276 276 275 275 274 274 274 273 273 272 272 271 271 270 269 268 267 267 267 266 266 266 265 265
276 276 276 276 276 276 275 275 275 275 275 276 277 275 275 275 274 275 276 275 275 274 274 273 272 272 272 271 271 270 270 270 269 267 268 268 267 266 265 265 265 265 264
275 274 273 274 274 273 273 273 273 274 274 273 273 274 274 275 274 274 274 274 273 273 272 272 271 272 271 270 269 269 269 269 267 267 266 266 267 266 264 264 264 264 264
273 272 272 271 271 271 271 271 271 271 271 271 272 272 274 274 273 273 273 273 272 272 271 271 270 270 270 269 268 268 268 268 267 267 266 266 266 264 264 263 263 263 263
270 269 269 269 269 269 269 269 270 270 270 270 270 270 271 272 273 272 272 272 271 270 270 270 269 269 269 268 268 268 267 267 267 266 265 265 265 264 263 263 263 262 262

GFSGL_925_thetae_108.txt.gz
Theta_e
312 320 322 324 326 326 326 326 323 322 317 312 309 308 303 295 293 292 291 290 290 289 289 288 288 288 288 288 288 288 288 288 290 289 288 288 288 287 287 287 286 285 285
310 313 315 320 323 322 323 324 320 318 314 311 303 303 296 293 291 291 290 289 289 289 288 288 287 287 287 287 288 287 287 287 287 287 287 288 287 286 286 286 285 285 285
309 310 311 313 316 318 319 317 316 316 307 306 301 298 293 292 291 290 289 289 288 288 288 287 287 287 287 287 287 287 287 287 286 286 288 288 287 286 286 286 285 285 285
308 309 309 312 313 315 314 314 310 311 304 300 297 293 292 291 290 289 289 288 288 288 287 287 286 286 286 286 286 286 286 287 286 287 288 287 287 286 285 285 285 285 284
307 308 309 310 310 310 309 306 304 305 299 298 293 291 290 290 289 289 288 288 288 287 286 286 286 286 286 286 286 286 287 287 287 287 288 287 286 285 284 283 283 283 284
304 306 307 307 306 305 305 304 304 297 294 292 291 290 289 289 288 288 288 288 287 287 286 285 286 285 285 285 285 285 286 287 285 286 287 286 285 284 283 283 283 283 284
301 303 303 303 301 300 299 299 294 292 291 290 290 289 288 288 288 288 288 287 287 286 286 286 286 285 285 285 285 285 285 285 285 286 286 285 285 284 282 282 282 282 283
300 300 300 299 298 298 295 293 292 290 289 289 288 288 288 287 287 287 287 287 286 286 286 286 286 286 285 285 285 286 285 285 284 284 285 284 284 283 282 282 281 280 281
298 298 298 297 296 295 293 291 290 289 288 288 288 287 287 287 287 286 286 286 286 286 286 286 285 285 285 285 285 285 285 284 284 284 284 283 283 283 282 282 282 281 282
297 298 298 295 295 294 292 290 289 288 288 287 287 286 286 286 286 286 286 286 285 285 285 285 284 285 284 284 285 285 284 284 284 283 284 283 283 282 282 282 280 281 281
296 296 296 294 293 293 291 289 288 287 287 286 285 285 285 285 286 285 286 286 286 285 285 284 284 284 284 284 285 284 284 284 283 282 282 283 283 282 282 281 280 279 280
295 294 293 293 291 289 289 287 286 286 285 284 284 284 284 284 285 285 285 285 285 286 284 285 284 283 283 284 285 284 284 284 283 281 281 281 282 282 281 281 280 279 278
294 293 291 290 288 288 287 286 285 284 283 283 283 282 282 283 283 284 284 285 285 285 284 284 284 283 283 283 284 284 283 282 281 280 281 282 282 281 281 280 279 278 277
293 291 290 288 287 286 286 285 285 283 283 282 282 282 282 283 283 284 284 284 284 285 284 283 282 282 282 283 283 283 282 281 281 279 280 280 280 280 279 278 277 276 275
291 290 289 287 286 285 285 284 284 284 284 284 283 284 283 283 286 287 288 286 287 284 284 283 282 281 281 282 281 281 280 280 280 279 279 279 278 278 277 276 275 274 275
290 288 286 286 285 284 283 283 283 283 283 283 284 285 285 286 289 291 290 288 284 283 282 282 281 281 281 281 281 279 280 279 279 278 278 278 277 276 275 274 273 273 274
289 288 286 285 284 283 282 282 282 280 281 282 283 283 284 287 292 290 292 283 282 282 282 281 282 282 281 280 280 280 278 278 278 278 277 276 275 274 273 273 273 272 273
286 286 286 285 283 282 282 281 282 281 282 282 282 283 283 286 289 289 286 283 283 283 283 283 282 281 281 280 279 278 279 277 277 276 275 275 274 273 271 272 272 271 271
283 284 284 283 282 282 281 281 281 282 282 282 282 282 283 285 283 283 282 283 283 282 282 280 281 279 278 277 278 278 278 277 276 275 274 274 273 271 270 270 270 270 269
282 282 282 282 281 281 281 281 281 281 281 282 282 283 286 283 282 283 282 282 282 280 279 279 280 279 279 278 278 277 277 275 274 273 273 272 271 270 269 269 269 268 268
280 280 280 280 280 280 280 280 280 280 281 281 281 282 282 282 282 282 282 282 281 280 280 279 278 278 277 276 276 275 275 274 273 272 272 271 269 268 269 268 268 267 266
278 278 278 278 278 278 278 278 278 278 278 278 278 279 280 279 279 279 280 280 279 280 279 278 277 276 276 275 275 274 274 273 272 271 271 270 268 268 268 267 266 266 265
277 276 275 275 275 275 275 275 275 275 276 276 276 276 276 277 277 277 276 276 276 277 277 276 275 275 274 274 273 273 273 273 272 271 270 269 268 267 267 266 266 265 264
275 274 274 273 273 272 272 272 273 273 273 273 274 274 274 274 275 275 275 275 276 276 275 275 274 274 274 273 272 272 272 271 271 270 269 268 268 267 266 266 265 265 264
272 272 271 271 270 270 270 270 271 271 271 271 271 272 272 272 272 272 273 274 274 274 274 274 274 273 273 272 271 271 271 270 269 268 268 267 266 266 266 266 265 264 263
270 269 269 268 267 267 267 268 269 269 269 269 270 270 270 270 270 270 270 271 272 272 272 271 271 271 270 270 269 269 269 268 268 268 267 266 266 265 265 265 264 263 262

GFSGL_925_thetae_111.txt.gz
Theta_e
320 325 327 327 327 327 329 327 324 323 322 321 321 319 312 307 304 302 296 293 291 291 290 290 289 289 290 289 290 290 290 290 292 291 289 289 289 288 288 287 286 286 286
315 318 324 324 325 324 326 325 324 324 321 319 320 313 309 305 301 297 293 291 291 290 290 289 289 289 289 289 289 289 289 289 289 290 289 289 288 287 287 287 286 285 285
312 313 318 321 320 323 324 324 322 321 318 316 312 308 305 301 296 293 292 291 290 290 289 289 289 288 288 288 289 289 288 288 287 287 289 289 288 287 286 286 286 286 285
310 310 312 312 312 316 318 319 318 318 316 308 308 307 301 297 294 292 291 290 289 289 288 288 288 288 288 288 288 288 288 288 287 287 289 289 288 287 286 286 286 285 286
307 308 309 309 309 310 313 314 314 312 311 307 305 301 298 294 292 291 290 289 289 288 288 288 288 287 287 287 287 288 288 288 287 288 289 288 288 286 285 284 284 284 285
305 306 306 307 307 308 309 308 307 304 302 300 296 295 293 291 291 290 290 289 288 288 288 287 287 287 287 286 287 288 288 287 287 287 288 287 286 285 285 283 283 283 284
304 305 305 306 306 305 304 303 301 299 298 296 295 293 292 290 290 289 289 288 288 288 287 287 287 286 286 286 285 285 286 286 286 286 287 287 286 285 283 283 283 282 282
302 303 303 303 303 302 301 299 296 296 297 296 293 292 290 290 289 288 288 288 288 287 287 287 287 286 286 286 285 285 286 286 285 285 285 285 285 284 283 283 282 282 282
300 301 301 301 300 300 298 297 295 293 292 293 292 290 289 289 288 288 287 287 287 287 287 287 286 286 286 286 285 285 286 285 285 284 284 284 284 284 283 283 282 282 282
299 300 300 300 299 298 297 296 295 293 292 290 290 288 288 288 287 287 287 287 286 286 286 286 286 286 286 286 285 285 285 285 285 284 284 284 284 283 283 283 282 281 281
298 298 298 298 297 296 295 293 292 291 290 288 287 286 286 286 287 287 287 286 286 286 286 285 285 286 285 285 285 285 285 285 285 284 282 283 283 283 283 282 282 281 280
297 296 296 296 296 294 293 291 289 288 287 286 285 285 285 285 286 287 287 286 286 286 286 286 286 286 285 285 285 285 285 285 284 283 282 282 282 282 282 281 281 281 280
295 294 293 292 292 291 291 290 288 287 286 285 285 284 284 284 284 286 287 287 285 285 286 286 286 285 284 285 285 285 285 285 284 283 282 282 283 283 282 281 280 279 278
293 292 291 290 289 288 288 287 287 286 285 285 284 284 284 283 284 284 285 286 286 285 285 285 285 284 284 284 284 284 285 285 284 282 281 281 282 281 281 280 279 277 277
291 290 289 288 288 287 286 286 286 286 286 285 285 285 284 283 284 285 284 285 285 286 285 285 284 283 283 283 283 283 283 283 283 282 280 280 280 279 279 278 278 276 275
289 289 288 287 287 286 286 285 285 284 285 285 285 285 285 285 285 285 285 284 285 286 285 284 284 283 283 282 282 282 281 281 281 280 279 278 278 278 277 277 276 275 274
287 287 286 286 285 285 284 284 284 284 283 283 284 284 284 285 284 285 285 286 289 285 285 284 283 283 282 282 282 282 282 280 280 279 278 277 277 277 276 275 275 274 274
285 285 285 285 285 284 284 283 283 284 282 282 283 283 283 283 284 284 289 289 285 284 284 284 283 283 282 282 282 281 281 281 279 278 277 277 276 276 275 274 273 273 273
284 284 284 284 283 283 283 283 283 283 283 283 283 283 283 283 283 283 285 285 284 284 284 284 283 283 283 282 281 281 280 279 278 278 276 275 275 275 274 273 273 272 272
282 281 282 282 283 282 282 282 282 282 282 283 283 283 282 283 283 284 284 284 284 284 284 284 284 282 282 281 281 279 278 277 276 276 276 275 275 274 273 272 271 270 270
280 280 280 280 281 281 281 281 281 281 282 282 283 283 283 283 284 284 284 283 283 283 284 283 282 281 280 279 278 278 276 276 276 275 275 274 273 272 272 270 269 269 269
277 278 278 278 278 278 278 278 278 279 279 280 280 280 281 281 282 282 282 283 283 283 283 282 282 281 280 279 278 276 275 275 274 274 273 273 272 271 270 269 269 268 268
275 275 275 275 275 275 275 275 275 276 276 277 277 277 277 277 278 279 279 279 280 281 280 280 279 278 277 277 276 276 275 275 275 274 273 272 271 270 269 268 268 267 267
274 273 273 273 272 272 272 272 273 273 273 273 273 274 275 275 275 275 276 277 276 276 276 276 276 276 275 276 275 275 275 274 273 273 272 271 271 269 268 267 267 267 266
271 271 270 270 270 270 270 270 270 271 271 271 272 272 272 272 272 272 272 272 272 272 272 273 273 273 273 273 273 273 272 271 271 271 270 269 268 268 267 267 267 266 265
269 269 269 268 268 268 268 268 268 268 269 269 269 269 270 270 270 270 270 270 270 270 270 270 271 271 271 271 271 271 270 270 269 269 268 268 267 267 266 266 266 265 265

GFSGL_925_thetae_114.txt.gz
Theta_e
326 328 329 330 332 332 332 331 330 329 328 327 325 323 323 322 318 313 309 305 301 295 293 292 291 291 290 289 289 290 290 291 292 290 290 289 289 288 287 287 286 286 285
318 320 324 327 329 330 330 329 328 328 327 325 324 320 319 317 314 309 307 302 297 293 292 291 290 290 290 289 289 290 290 290 291 291 290 289 289 288 287 287 286 286 285
312 314 317 321 326 326 327 326 325 326 325 323 320 317 314 316 307 307 305 301 295 292 291 291 290 289 290 289 289 289 289 289 289 289 289 289 289 287 287 286 286 286 286
311 312 313 316 321 320 321 321 322 323 322 321 317 313 311 308 308 303 299 296 292 291 291 290 290 289 289 289 289 289 289 288 288 287 288 289 288 287 287 286 286 286 287
309 310 311 312 315 316 317 317 319 318 316 314 311 307 305 305 301 303 296 293 291 291 290 289 289 289 288 289 289 289 288 288 287 287 288 289 288 287 286 285 284 285 285
307 308 308 309 309 309 309 310 312 312 312 309 306 305 302 301 301 298 296 292 290 290 289 289 289 288 288 288 288 288 288 288 287 287 288 288 288 287 285 284 283 282 283
306 306 306 307 307 306 306 306 307 307 307 305 302 300 299 298 297 295 293 290 290 289 289 288 288 288 287 287 287 288 288 288 287 287 287 287 287 286 285 283 282 282 282
304 303 304 304 304 303 303 303 304 303 302 301 298 297 297 295 295 294 291 292 289 289 288 288 288 287 287 287 286 286 286 287 286 286 286 286 286 285 285 283 282 282 282
302 302 302 302 302 302 303 302 300 299 297 296 296 295 294 295 293 291 291 288 288 288 288 287 287 287 287 286 286 286 286 286 286 286 285 285 285 285 284 282 282 282 282
299 300 300 300 300 301 302 301 299 297 295 293 292 291 292 290 291 288 288 287 287 287 287 287 287 287 286 286 286 286 285 286 286 285 284 284 284 284 283 283 282 282 281
298 298 298 298 298 298 298 297 296 293 291 291 291 290 290 289 288 288 287 287 287 287 286 286 286 286 286 286 286 286 285 286 285 285 284 284 283 283 283 282 282 281 281
295 295 295 295 295 295 294 293 291 290 289 288 288 288 289 288 288 288 287 287 286 286 286 286 286 286 286 285 286 286 285 285 285 285 284 283 282 282 282 282 281 282 281
294 293 292 292 291 291 291 291 290 289 288 287 287 286 287 286 286 287 288 287 286 286 286 286 286 286 286 286 285 285 285 286 286 285 283 283 282 282 283 282 281 281 280
292 291 291 290 290 289 288 289 288 288 287 286 286 286 285 285 285 285 287 288 288 286 286 286 286 285 285 285 285 285 286 286 285 285 284 284 282 282 282 282 281 280 278
289 289 288 288 287 287 287 286 287 287 287 287 287 286 285 284 285 285 285 286 287 287 286 285 285 285 285 285 284 284 284 284 285 284 284 283 282 281 281 280 279 278 277
288 288 287 287 286 286 286 285 286 285 285 285 285 285 285 285 285 286 286 285 285 286 286 285 284 284 284 284 283 283 283 283 283 283 283 282 281 280 280 279 277 277 276
286 286 286 285 285 285 284 284 284 284 285 284 284 284 285 284 285 285 285 285 284 285 286 285 285 285 285 284 283 283 283 283 283 282 281 280 280 279 278 278 277 276 275
285 284 284 284 284 284 283 283 283 283 283 283 283 284 284 284 285 284 285 284 285 285 285 286 285 285 285 284 283 283 282 282 282 281 280 279 278 278 277 276 276 276 275
282 282 283 283 283 283 282 282 282 282 282 282 283 283 283 284 284 284 285 285 285 285 285 285 285 285 284 284 284 283 282 282 281 281 280 279 277 277 276 276 276 275 274
281 281 281 281 281 281 281 281 281 281 281 281 282 282 283 283 283 284 284 284 285 285 285 285 285 284 284 284 284 283 282 282 281 280 279 278 277 276 275 274 275 274 273
279 279 279 280 279 278 278 278 279 279 280 280 280 280 282 283 282 283 283 284 284 284 284 285 285 285 284 284 283 283 282 281 279 278 277 276 275 275 274 274 274 273 273
278 278 278 278 277 277 277 276 276 276 276 276 277 277 278 279 280 281 281 282 283 283 283 284 284 284 283 282 282 281 279 278 277 276 276 275 274 273 273 273 272 271 270
275 275 275 275 274 274 274 274 274 273 273 273 273 274 274 275 276 276 276 277 278 278 279 280 280 279 279 278 278 277 276 276 277 276 275 274 273 272 272 271 270 269 269
272 272 272 272 272 271 271 271 271 271 271 271 271 271 272 272 272 273 273 273 273 274 274 275 274 274 274 274 274 274 274 274 274 273 273 272 272 271 270 269 269 268 268
269 270 270 269 269 269 268 268 268 268 268 269 269 269 269 269 270 270 270 270 270 270 271 271 271 271 271 271 271 272 272 272 271 271 271 270 270 270 269 268 268 267 267
268 268 267 267 267 266 266 266 266 266 266 266 266 267 267 267 268 268 268 268 268 268 268 268 268 268 269 269 270 270 270 270 270 270 269 269 268 268 267 267 267 267 266

GFSGL_925_thetae_117.txt.gz
Theta_e
329 331 331 331 331 331 330 330 331 331 331 331 330 327 327 327 324 324 324 320 314 312 307 303 298 294 292 292 291 291 292 293 292 290 291 290 289 289 288 287 287 286 285
324 327 328 329 330 331 331 331 330 331 331 331 328 327 327 326 323 321 321 316 311 309 303 300 294 292 291 291 290 290 290 291 292 291 290 290 289 289 288 287 287 286 286
309 312 316 320 323 326 328 329 329 330 330 328 327 326 326 324 321 318 316 314 310 305 301 297 293 292 291 290 290 290 290 290 290 291 290 289 289 289 287 287 286 286 286
309 310 311 312 315 319 325 324 324 325 325 325 325 323 322 321 319 314 309 310 307 303 298 300 292 291 291 290 290 290 290 289 289 289 289 289 289 288 287 287 286 286 286
308 309 310 311 312 315 318 321 319 318 319 320 320 318 316 314 313 309 308 305 303 299 297 293 291 291 290 290 290 289 289 289 288 288 288 289 289 288 287 287 285 285 286
308 308 308 309 310 312 313 315 315 315 315 314 313 312 311 310 308 305 306 304 298 297 293 291 291 290 289 289 289 289 289 289 288 287 287 288 289 288 287 286 285 284 284
306 306 306 307 308 308 308 308 307 308 307 308 308 308 308 306 304 303 302 300 298 294 292 292 290 289 289 288 288 288 289 288 288 288 288 288 288 288 287 286 285 283 282
304 304 304 304 304 304 304 304 304 304 304 304 304 304 302 301 299 298 296 296 295 293 294 292 290 292 288 288 288 288 288 288 288 288 288 288 287 287 287 286 285 283 282
301 301 301 301 302 302 302 302 303 302 302 302 300 297 296 296 295 293 295 295 292 291 289 290 290 288 288 287 287 287 288 288 288 287 287 286 286 285 286 285 283 282 281
298 299 299 299 300 300 300 300 300 299 298 296 296 295 293 293 292 291 292 292 290 290 290 288 288 288 287 287 287 286 286 286 286 286 286 286 285 285 285 284 284 282 281
296 296 296 296 295 295 295 295 295 294 294 292 292 291 291 291 291 291 290 290 291 290 288 288 287 287 287 286 286 286 287 286 286 286 286 285 284 284 284 284 283 283 282
295 294 294 294 293 293 293 293 293 292 290 289 289 288 288 288 289 289 289 289 288 287 287 287 287 287 286 286 286 286 286 286 286 286 286 285 285 284 284 283 283 282 282
294 293 292 291 291 291 290 290 290 289 289 288 288 287 288 288 288 288 289 288 287 286 287 287 287 287 286 286 287 287 286 286 285 285 285 285 285 285 284 282 282 282 281
291 290 290 290 289 288 288 287 288 288 287 287 287 287 287 287 287 286 287 288 288 287 286 286 286 285 285 286 286 286 286 286 285 285 285 285 285 284 283 282 282 282 281
289 288 288 288 287 287 287 286 286 286 286 286 286 286 286 286 287 287 286 286 288 288 287 287 285 285 285 285 285 286 286 286 286 285 285 285 284 284 283 282 282 281 280
288 287 287 286 286 286 286 286 286 285 285 285 285 286 286 285 285 285 285 285 286 287 286 285 285 285 285 285 284 284 285 285 285 285 285 284 283 283 282 282 281 280 278
286 285 285 285 284 284 284 283 283 285 284 284 284 284 284 285 285 285 285 285 285 286 286 285 285 284 284 284 284 284 284 285 285 284 283 282 282 282 280 280 279 278 277
284 284 284 284 283 283 283 283 282 282 282 283 283 283 284 284 284 285 285 285 285 285 285 285 285 285 285 284 284 284 285 285 284 283 282 282 281 280 279 278 277 277 276
285 284 284 284 283 283 282 282 281 280 280 281 281 282 282 283 283 284 284 284 284 284 284 285 285 285 285 284 285 285 285 284 283 282 281 281 280 279 278 277 277 276 276
282 282 282 281 281 281 280 280 280 280 279 279 279 279 280 281 282 282 282 283 283 284 285 285 285 285 285 285 285 285 284 283 282 282 281 281 280 279 278 277 276 275 274
279 280 279 280 279 279 278 278 277 277 277 276 276 277 278 279 279 279 280 281 282 283 283 284 284 284 284 284 284 284 283 283 282 281 281 280 279 278 277 276 276 275 274
277 277 277 277 276 276 276 275 275 275 274 274 274 274 274 275 275 276 276 276 276 277 278 278 279 279 280 281 281 281 281 280 280 279 279 278 277 277 276 275 274 273 273
275 275 275 274 274 273 273 272 272 272 271 271 271 271 272 271 271 272 272 272 273 273 273 274 275 275 275 275 275 275 275 275 275 275 275 275 275 275 274 273 272 272 271
273 273 272 272 271 271 270 270 269 269 268 268 268 268 269 269 269 269 269 269 269 270 270 270 271 271 271 271 271 272 272 272 272 271 272 272 273 273 272 271 271 271 270
270 270 270 269 269 268 268 267 267 267 267 267 267 266 267 267 267 267 267 268 268 268 268 268 268 268 269 269 269 269 270 270 270 269 270 270 270 271 271 270 269 269 269
269 268 268 268 267 267 266 266 266 266 266 265 265 265 265 265 265 265 266 266 266 266 266 266 267 267 267 267 267 268 268 269 269 269 269 268 268 268 268 268 268 268 267

GFSGL_925_thetae_123.txt.gz
Theta_e
327 328 325 324 323 323 323 323 323 323 324 324 325 326 326 326 327 327 326 326 325 324 320 320 322 321 319 313 305 301 298 297 293 291 292 293 292 291 289 288 288 287 287
327 328 328 329 328 327 325 324 324 324 324 325 326 326 327 327 328 327 327 325 323 322 320 318 319 317 314 312 305 299 297 295 294 291 290 290 291 290 289 288 288 287 287
320 323 325 326 327 327 328 328 327 326 325 326 326 327 328 328 327 326 323 320 320 319 317 315 313 311 307 304 301 298 295 293 292 291 290 290 289 289 288 288 288 287 287
307 307 307 310 314 317 319 319 320 321 322 324 324 324 322 320 319 317 316 316 315 314 314 311 310 307 304 302 298 295 294 292 290 291 291 290 289 289 288 288 287 287 287
307 307 307 308 309 309 310 312 314 314 315 317 317 316 315 315 315 315 314 312 311 309 307 306 303 301 300 298 298 294 291 290 290 289 289 289 289 288 288 288 288 288 287
306 306 307 307 308 308 309 309 310 310 311 312 312 311 308 307 307 308 307 306 305 305 304 302 300 299 297 296 295 292 291 290 290 289 289 289 289 289 289 288 288 286 286
305 305 305 306 306 306 306 306 306 306 305 303 303 304 305 305 306 306 306 303 301 300 299 299 298 296 295 294 293 292 291 290 290 291 290 289 288 289 289 288 288 287 287
304 303 303 304 304 304 304 304 303 303 302 303 303 303 303 302 303 301 300 299 298 297 296 296 295 295 293 292 292 291 291 292 292 290 289 289 289 288 288 289 289 288 287
302 302 302 302 302 301 302 302 301 301 302 304 304 304 304 303 303 301 299 297 296 294 294 293 292 292 292 292 290 289 291 292 291 289 288 288 288 288 288 288 288 286 284
299 300 300 300 301 302 302 302 300 301 302 303 302 300 298 298 297 297 295 294 293 292 292 292 292 292 291 291 291 291 290 291 289 288 288 288 288 288 287 288 288 286 284
299 298 298 298 299 299 298 298 298 299 299 296 294 294 294 293 293 292 291 292 292 291 291 291 291 291 291 290 291 291 290 288 288 287 288 287 287 287 287 286 287 286 284
295 295 295 295 295 294 294 293 292 292 293 291 290 290 290 290 289 290 291 291 291 290 290 290 289 289 290 290 289 288 288 287 287 286 286 286 285 286 286 286 285 286 286
293 292 292 292 292 291 291 290 290 289 288 287 287 287 287 287 287 288 288 289 290 289 289 288 287 287 287 287 287 287 288 286 285 284 284 284 284 285 285 285 285 285 285
291 290 290 291 290 289 289 288 288 287 286 286 286 285 285 286 286 285 286 286 288 289 288 288 287 286 286 286 286 287 287 287 285 285 285 285 285 284 284 285 283 284 283
291 290 289 289 289 287 287 286 286 286 286 285 285 284 284 285 285 285 285 285 285 286 286 286 285 285 285 285 285 286 286 286 287 286 285 285 284 284 284 283 283 283 282
288 288 288 288 287 287 287 285 285 285 285 285 284 285 284 285 285 285 285 285 286 285 286 286 286 285 284 284 284 285 285 285 284 285 285 285 285 285 284 284 283 282 282
288 287 287 286 286 286 286 286 284 284 284 284 283 284 283 284 284 285 285 285 285 285 285 285 285 285 285 285 285 285 285 285 285 284 284 284 285 285 285 284 283 282 281
287 287 287 286 286 286 285 285 284 285 283 283 283 282 283 282 283 283 284 285 284 284 284 284 284 284 284 284 285 285 284 284 284 284 284 283 284 284 284 284 283 282 281
286 285 285 284 284 284 283 282 282 281 281 280 280 280 280 281 281 281 281 282 281 282 281 282 282 282 282 283 283 284 284 283 283 283 283 283 283 283 283 283 282 282 281
284 283 283 283 282 282 281 280 279 279 278 278 278 277 277 278 278 277 277 278 278 278 278 278 278 277 277 278 278 278 279 279 280 282 283 283 283 283 282 281 281 280 279
282 281 281 280 280 280 279 279 278 277 277 276 276 275 274 275 275 274 274 274 274 273 273 273 274 274 274 274 274 275 275 275 276 276 276 278 278 278 279 279 279 278 278
279 279 279 279 278 278 277 277 277 277 276 275 274 274 273 273 272 272 272 272 271 271 270 270 270 271 271 271 271 271 271 272 272 272 273 273 274 274 275 275 276 276 276
276 276 276 276 276 276 275 275 274 274 274 273 273 272 272 272 272 271 271 270 269 269 269 269 269 269 269 269 269 269 269 269 270 270 270 270 271 271 272 272 273 273 274
274 274 274 274 273 273 273 273 273 272 272 272 272 272 271 270 270 269 269 269 269 268 268 268 267 267 268 268 268 268 268 268 268 268 268 268 269 269 269 270 270 271 271
272 272 272 271 271 271 271 271 271 271 270 270 270 269 269 268 268 268 267 267 267 267 267 267 266 267 267 267 267 267 267 268 268 267 268 268 268 268 268 268 268 269 269
270 270 270 269 269 269 269 269 269 268 268 268 267 267 267 267 267 267 266 266 266 266 266 266 266 266 266 266 266 266 266 267 267 267 267 267 267 267 267 267 267 267 267